Regional Weather Roundup
Issued by NWS State College, PA

Home | Current Version | Previous Version | Graphics & Text | Print | Product List | Glossary Off
Versions: 1 2 3 4 5 6 7 8 9 10 11 12 13 14 15 16 17 18 19 20 21 22 23 24 25 26 27 28 29 30 31 32 33 34 35 36 37 38 39 40 41 42 43 44 45 46 47 48 49 50

000
ASUS41 KCTP 262103
RWRCTP

REGIONAL WEATHER ROUNDUP
NATIONAL WEATHER SERVICE STATE COLLEGE PA
500 PM EDT TUE MAY 26 2015

Note: "fair" indicates few or no clouds below 12,000 feet with no
significant weather and/or obstructions to visibility.

* = STATION THAT DOES NOT REPORT PRECIPITATION /E.G. RAIN...SNOW...ETC/
    THUNDER OR FOG.

PAZ002>004-007>009-013>016-020>023-029>032-262200-
WESTERN PENNSYLVANIA

CITY           SKY/WX    TMP DP  RH WIND       PRES   REMARKS
ERIE           PTSUNNY   83  61  47 S17       30.02F
MEADVILLE      MOSUNNY   78  62  57 S9G20     30.07F
FRANKLIN*      PTSUNNY   75  61  60 S13       30.11F
NEW CASTLE     MOCLDY    80  67  64 CALM      30.08F
BEAVER COUNTY  PTSUNNY   77  64  65 S7        30.09F
BUTLER*        MOSUNNY   77  64  65 S10       30.13F
PITTSBURGH INT PTSUNNY   79  65  62 S9        30.10F
PITTSBURGH     SUNNY     78  61  55 S13       30.10F
INDIANA*       SUNNY     75  68  78 VRB6      30.17F
LATROBE        MOSUNNY   79  66  65 S7        30.14F
WASHINGTON CO* MOSUNNY   79  66  65 S9        30.13F
$$

PAZ004>006-010>012-017>019-024>028-033>037-041-042-045-046-049>053-262200-
CENTRAL PENNSYLVANIA

CITY           SKY/WX    TMP DP  RH WIND       PRES   REMARKS
BRADFORD       CLOUDY    74  60  61 S7        30.15F
DUBOIS         CLOUDY    74  63  68 VRB5      30.15F
CLEARFIELD     CLOUDY    74  65  73 E5        30.16F
JOHNSTOWN      PTSUNNY   75  62  64 S9        30.18F
ALTOONA        PTSUNNY   79  63  57 SE7       30.18F
STATE COLLEGE  PTSUNNY   81  64  57 W12       30.15F
WILLIAMSPORT   RAIN      75  69  81 SW5       30.13F
SELINSGROVE    PTSUNNY   85  63  47 S10       30.12F
FT INDIANTOWN  PTSUNNY   86  64  47 VRB5      30.13F
CAPITAL CITY   PTSUNNY   83  62  49 S7        30.13F
HARRISBURG     PTSUNNY   84  62  47 SW7       30.12F
YORK           CLOUDY    82  65  56 S9        30.15F
$$

PAZ038>040-043-044-047-048-054-055-060>062-067>071-262200-
EASTERN PENNSYLVANIA

CITY           SKY/WX    TMP DP  RH WIND       PRES   REMARKS
SCRANTON       PTSUNNY   83  65  54 SW8       30.14S
MOUNT POCONO   CLOUDY    80  59  48 W10       30.20S
ALLENTOWN      PTSUNNY   88  60  38 SW7       30.13F
QUAKERTOWN*    PTCLDY    86  61  42 SW10      30.16F
READING        PTSUNNY   88  62  41 S7        30.12F
LANCASTER      PTSUNNY   84  64  50 S8        30.14F
COATESVILLE    PTCLDY    82  66  57 SW6       30.18S
POTTSTOWN      SUNNY     85  61  44 SW10      30.17S
BLUE BELL      MOSUNNY   86  61  42 S8        30.15S
DOYLESTOWN     MOSUNNY   85  57  38 S8        30.14F
WILLOW GROVE   NOT AVBL
NORTH PHILA    MOSUNNY   87  58  37 SW13      30.16F
PHILADELPHIA   PTSUNNY   87  61  41 SW15      30.15F
$$



USA.gov is the U.S. government's official web portal to all federal, state and local government web resources and services.